Location: *
(32.8140°S, 174.6161°E)
Time: 10:15:57
(UTC+00:00)

Shenzhou-11 Module - Pass Details

Date: 10 December 2019
Orbit: 303 x 316 km, 42.8° (Epoch: 19 January)

Event Time Altitude Azimuth Distance (km) Brightness Sun altitude
Exits shadow 14:51:57 23° 159° (SSE) 726 4.2 -22.8°
Drops below altitude 10° 14:53:21 10° 137° (SE) 1,203 5.7 -22.6°
Sets 14:55:26 0° 126° (SE) 2,036 7.1 -22.3°
